Regional Weather Roundup
Issued by NWS Grand Forks, ND

Home | Current Version | Previous Version | Text Only | Print | Product List | Glossary Off
Versions: 1 2 3 4 5 6 7 8 9 10 11 12 13 14 15 16 17 18 19 20 21 22 23 24 25 26 27 28 29 30 31 32 33 34 35 36 37 38 39 40 41 42 43 44 45 46 47 48 49 50

000
ASUS43 KFGF 290810
RWRFGF
PRAIRIE TO PINES  WEATHER ROUNDUP
NATIONAL WEATHER SERVICE EASTERN NORTH DAKOTA/GRAND FORKS ND
300 AM CDT MON MAY 29 2017

 **SATELLITE DATA USED TO AUGMENT SKY COVER AT AUTOMATED STATIONS**
 *****  WEATHER ACROSS EASTERN NORTH DAKOTA  *****

CITY           SKY/WX    TMP DP  RH WIND       PRES   REMARKS
GRAND FORKS    CLOUDY    52  49  89 NW12      29.80R
GRAND FRKS AFB CLOUDY    50  50 100 N14G22    29.81R
DEVILS LAKE    CLOUDY    52  45  77 NW17G23   29.87R
FARGO          CLOUDY    52  49  89 NW15      29.80S
WAHPETON ARPT  CLOUDY    52  46  82 NW10      29.82R
$$

 ***** WEATHER ACROSS CENTRAL AND WESTERN NORTH DAKOTA  *****

CITY           SKY/WX    TMP DP  RH WIND       PRES   REMARKS
BISMARCK       FAIR      51  42  71 NW12      29.98R
MINOT          CLOUDY    53  43  68 NW18G28   29.97R
JAMESTOWN      CLOUDY    51  46  83 NW17      29.87R
MINOT AFB      CLOUDY    52  43  73 NW21G26   29.96R
GARRISON         N/A     47  42  83 NW17      29.98R
WILLISTON      FAIR      50  39  66 NW12      30.09R
DICKINSON      FAIR      39  35  86 NW10      30.06R
HETTINGER      FAIR      35  32  88 W3        30.09R
$$

 *****  OTHER AIRPORT OBSERVATIONS IN OUR AREA  *****

CITY           SKY/WX    TMP DP  RH WIND       PRES   REMARKS
WALHALLA       NOT AVBL
GRAFTON AIRPOR CLOUDY    50  50 100 NW14      29.82S FOG
VALLEY CITY AR CLOUDY    54  50  87 NW13      29.86R
CANDO          NOT AVBL
CAVALIER APRT  DRIZZLE   50  48  93 NW16      29.81R
GWINNER        CLOUDY    52  48  87 MISG      29.85S
SHEYENNE NWR     N/A     54  48  80 NW7       29.95S
ROLLA          CLOUDY    48  46  93 NW20      29.89R
 ***** THE ABOVE OBSERVATIONS ARE NON NWS ARE NOT QUALITY
       CONTROLLED AND MAY MIS-REPORT RAIN FOR SNOW...
$$

  *****  WEATHER ACROSS NORTHERN MINNESOTA  *****

CITY           SKY/WX    TMP DP  RH WIND       PRES   REMARKS
FLAG ISLAND    LGT RAIN  48  46  93 NW20      29.68S
WARROAD        CLOUDY    48  45  87 NW13      29.72S
ROSEAU         CLOUDY    48  45  87 NW8       29.73R
HALLOCK        LGT RAIN  48  48 100 NW15      29.78S
THF RVR FALLS  CLOUDY    48  46  93 NW16      29.76S
BAUDETTE       RAIN      49  48  97 NW12      29.68S FOG
WASKISH        CLOUDY    50  46  87 NW9       29.70R
CROOKSTON      CLOUDY    52  48  87 NW15      29.78S
STEPHEN NDAWN    N/A     48  48 100 NW13        N/A
GREENBUSH NDAW   N/A     48  46  93 NW15        N/A
$$
  *****  WEATHER ACROSS CENTRAL AND WEST MINNESOTA  *****

CITY           SKY/WX    TMP DP  RH WIND       PRES   REMARKS
FOSSTON        DRIZZLE   46  46 100 NW13G18   29.75S
BEMIDJI        CLOUDY    48  46  93 NW9G17    29.71S
PARK RAPIDS    LGT RAIN  50  45  83 NW14      29.73S
ELBOW LAKE     CLOUDY    52  47  84 NW13      29.81R
WADENA         CLOUDY    50  45  81 NW7       29.75R
DETROIT LAKES  LGT RAIN  50  46  87 NW14      29.78S
MOORHEAD       CLOUDY    52  48  87 NW14      29.81S
FERGUS FALLS   CLOUDY    52  46  82 NW16      29.79S
MORRIS MN      MOCLDY    54  46  76 NW12      29.80S
STAPLES        CLOUDY    48  45  87 W9        29.74R
$$
  *****  WEATHER ELSEWHERE ACROSS MINNESOTA  *****

CITY           SKY/WX    TMP DP  RH WIND       PRES   REMARKS
DULUTH         CLOUDY    52  49  89 W12       29.62S
INTRNTL FALLS  LGT RAIN  51  48  89 NW9       29.64R
ELY            DRIZZLE   50  48  93 NW3       29.59F
CLOQUET        CLOUDY    52  48  87 W8        29.64S
WHEATON        CLOUDY    54  46  76 W10       29.84S
BRAINERD       CLOUDY    52  47  83 W10       29.72S
HIBBING        CLOUDY    51  49  92 NW12      29.63S
ALEXANDRIA     CLOUDY    52  46  80 NW14      29.78S
SAINT CLOUD    CLOUDY    52  48  86 NW10      29.73S
MINNEAPOLIS    CLOUDY    56  46  69 W14G20    29.72R
$$

  *****  WEATHER ACROSS SOUTH DAKOTA  *****

CITY           SKY/WX    TMP DP  RH WIND       PRES   REMARKS
SIOUX FALLS    FAIR      53  45  74 W7        29.90S
BROOKINGS      FAIR      51  44  77 NW13      29.88R
WATERTOWN      FAIR      50  44  80 W12       29.87R
HURON          FAIR      50  44  80 NW13      29.92S
SISSETON         N/A     55  48  77 NW12      29.83S
ABERDEEN       FAIR      49  41  74 NW12      29.90S
MITCHELL       FAIR      51  47  86 W7        29.94R
PIERRE         MOCLDY    50  39  66 NW8       30.00R
MOBRIDGE       FAIR      49  39  68 NW9       29.97R
RAPID CITY     FAIR      41  37  86 N12       30.11R
$$

  *****  SOME WEATHER IN NEARBY STATES *****

CITY           SKY/WX    TMP DP  RH WIND       PRES   REMARKS
GLASGOW MT     FAIR      47  31  53 N9        30.18R
GREAT FALLS MT FAIR      46  44  93 SW6       30.25S
CHEYENNE WY    FAIR      46  38  73 NW7       30.28S
SCOTTSBLUFF NE FAIR      50  43  77 W9        30.18S
OMAHA NE       FAIR      61  43  51 NW3       29.89R
DES MOINES IA  FAIR      57  46  66 SW3       29.84R
DAVENPORT IA   FAIR      54  48  80 SW3       29.80S
CHICAGO IL     MOCLDY    63  50  62 SW5       29.75F
EAU CLAIRE WI  CLOUDY    51  50  96 SW6       29.68F
LA CROSSE WI   FAIR      57  47  69 CALM      29.72F
$$

  *****  SOME NATIONAL WEATHER *****

CITY           SKY/WX    TMP DP  RH WIND       PRES   REMARKS
LA GUARDIA NY  LGT RAIN  59  54  83 E9        29.87F
RALEIGH NC     FAIR      69  63  81 CALM      29.86S
ATLANTA GA     MOCLDY    70  65  84 W8        29.99R
NEW ORLEANS LA MOCLDY    75  64  68 NE8       30.01F
OKLAHOMA CITY  MOCLDY    56  50  80 SW3       30.07R
ALBUQUERQUE NM MOCLDY    66  34  30 E7        30.19S
SALT LAKE CITY FAIR      60  40  47 CALM      30.14S
LOS ANGELES CA MOCLDY    61  58  90 W5        29.96F
BOISE ID       FAIR      63  43  48 SE7       30.07F
SEATTLE WA     FAIR      56  51  84 S8        30.06R
$$

*** WEATHER ACROSS MANITOBA...SASKATCHEWAN AND ONTARIO ***
                ***ONTARIO***

CITY           SKY/WX    TMP DP  RH WIND       PRES   REMARKS
GERALDTON      CLOUDY    52  50  93 S3        29.53S
THUNDER BAY    CLOUDY    50  50 100 CALM      29.56S FOG
SIOUX LOOKOUT  MOCLDY    46  46 100 CALM      29.57S
TORONTO        CLOUDY    59  55  88 S8        29.68R
BIG TROUT LK   MOCLDY    54  50  87 N7        29.58F
PICKLE LAKE    NOT AVBL
DRYDEN         CLOUDY    52  50  93 W8        29.59S
KENORA         LGT RAIN  48  46  93 NW13G22   29.67R FOG
$$
                *** MANITOBA***

CITY           SKY/WX    TMP DP  RH WIND       PRES   REMARKS
BRANDON        CLOUDY    50  43  76 N15G24    29.89S
DAUPHIN        CLOUDY    50  46  87 NW7       29.90S
ISLAND LAKE    NOT AVBL
PILOT MOUND      N/A     46  46 100 NW13        N/A
THE PAS        CLOUDY    46  39  76 N16G28    29.94R
THOMPSON       LGT RAIN  37  36  93 N10G20    29.86R FOG
WINNIPEG       LGT RAIN  46  45  93 N14       29.80R
LYNN LAKE      LGT RAIN  39  37  93 N10G18    30.02R
CHURCHILL      LGT RAIN  32  32 100 NE12      29.89R WCI  23
GILLAM         DRIZZLE   34  34 100 N10       29.81R FOG
$$
                ***SASKATCHEWAN***

CITY           SKY/WX    TMP DP  RH WIND       PRES   REMARKS
ESTEVAN        PTCLDY    48  45  87 NW13      30.04S
KINDERSLEY     CLEAR     43  36  75 NE6       30.22R
LLOYDMINSTER   CLEAR     46  36  66 N6        30.23R
PRINCE ALBERT  PTCLDY    43  37  81 NW6       30.14R
REGINA         MOCLDY    50  41  71 NW12      30.10S
YORKTON          N/A     50  45  81 NW16G22   30.00S
N. BATTLEFORD  CLEAR     41  41 100 NW5       30.23R
LA RONGE       CLEAR     46  39  76 NW6       30.13S
SASKATOON      CLEAR     37  36  93 W10       30.18S
SWIFT CURRENT  CLEAR     45  34  65 NW3       30.20R
$$
NOTE: THESE ARE AUTOMATED STATIONS WITH LIMITED QUALITY CONTROL
      "FAIR" INDICATES FEW OR NO CLOUDS BELOW 12,000 FEET WITH NO
      SIGNIFICANT WEATHER AND/OR OBSTRUCTIONS TO VISIBILITY.
      SKY/WX - SKY CONDITION AND SIGNIFICANT WEATHER.
      TMP - AIR TEMPERATURE.    DP   - DEWPOINT TEMPERATURE.
      RH  - RELATIVE HUMIDITY.  PRES - PRESSURE.
      HX  - HEAT INDEX.         WCI  - WIND CHILL INDEX.
$




USA.gov is the U.S. government's official web portal to all federal, state and local government web resources and services.